DW3777 Weather Reports


time (UTC)temp
C
wind
direction
speed
KPH
gust
KPH
rain 1hr
cm
rain 24hr
cm
rain mn
cm
humidity
%
barometer
mb
20260507141619 1 248 1.6 14.5 0.05 0.23 0.23 88 1014.9
20260507140110 2 234 4.8 6.4 0.00 0.15 0.15 89 1014.7
20260507134547 2 195 4.8 9.7 0.00 0.15 0.15 90 1014.5
20260507133042 2 171 6.4 11.3 0.05 0.15 0.15 89 1014.5
20260507131606 2 252 3.2 11.3 0.08 0.15 0.15 90 1014.3
20260507130034 1 229 6.4 12.9 0.13 0.15 0.15 90 1014.3
20260507124531 1 242 9.7 16.1 0.13 0.15 0.15 89 1014.2
20260507123028 1 257 12.9 19.3 0.08 0.13 0.13 87 1014.1
20260507121518 1 283 17.7 24.1 0.05 0.08 0.08 86 1014.1
20260507120026 3 266 16.1 22.5 0.00 0.05 0.05 77 1013.8
20260507114511 3 222 17.7 27.4 0.00 0.05 0.05 75 1013.4
20260507113012 3 215 19.3 30.6 0.00 0.05 0.05 76 1013.2
20260507111507 3 180 14.5 22.5 0.00 0.05 0.05 78 1013.0
20260507110006 3 200 14.5 27.4 0.00 0.05 0.05 78 1013.0
20260507104505 3 181 17.7 30.6 0.00 0.05 0.05 78 1012.9
20260507103002 3 194 17.7 29.0 0.00 0.05 0.05 76 1012.8
20260507101600 4 211 14.5 22.5 0.00 0.05 0.05 76 1012.7
20260507094611 2 174 8.0 24.1 0.00 0.05 0.05 80 1012.6
20260507093054 2 184 14.5 20.9 0.00 0.05 0.05 77 1012.5
20260507091552 3 219 9.7 25.7 0.00 0.05 0.05 76 1012.3
20260507090049 3 182 11.3 22.5 0.00 0.05 0.05 78 1012.3
20260507084556 2 213 14.5 25.7 0.00 0.05 0.05 77 1012.3
20260507083046 2 196 16.1 20.9 0.03 0.05 0.05 82 1012.1
20260507081545 2 214 9.7 24.1 0.03 0.05 0.05 83 1012.1
20260507080043 3 207 14.5 29.0 0.03 0.05 0.05 78 1012.0
20260507074545 2 221 11.3 19.3 0.03 0.05 0.05 77 1011.8
20260507073041 2 229 14.5 22.5 0.00 0.03 0.03 75 1011.7
20260507071543 3 175 14.5 19.3 0.00 0.03 0.03 77 1011.6
20260507070044 3 219 11.3 22.5 0.00 0.03 0.03 77 1011.5
20260507064543 -17 0.0 0.0 0.00 0.05 0.03 1011.3
20260507063030 2 194 11.3 17.7 0.00 0.05 0.03 81 1011.2
20260507061535 2 185 9.7 24.1 0.00 0.05 0.03 80 1011.0
20260507060037 2 181 11.3 17.7 0.00 0.05 0.03 81 1011.0
20260507054534 1 194 12.9 17.7 0.00 0.08 0.03 83 1010.9
20260507053018 1 198 4.8 9.7 0.00 0.08 0.03 87 1010.8
20260507051514 -17 0.0 0.0 0.00 0.08 0.03 1010.8
20260507050031 -17 0.0 0.0 0.00 0.08 0.03 1010.7
20260507044511 1 211 9.7 16.1 0.03 0.08 0.03 86 1010.8
20260507043006 1 183 3.2 6.4 0.03 0.08 0.03 85 1010.7
20260507041507 0 197 4.8 9.7 0.03 0.08 0.03 87 1010.6
20260507040004 1 209 1.6 4.8 0.03 0.08 0.03 87 1010.4
20260507034501 0 229 6.4 12.9 0.00 0.08 0.00 87 1010.2
20260507033103 0 229 9.7 14.5 0.00 0.08 0.00 88 1010.2
20260507031558 0 239 11.3 17.7 0.00 0.08 0.00 88 1010.1
20260507030056 -17 0.0 0.0 0.00 0.08 0.00 1010.1
20260507024551 -17 0.0 0.0 0.00 0.08 0.00 1010.1
20260507023046 -17 0.0 0.0 0.00 0.08 0.00 1009.9
20260507021555 0 238 8.0 14.5 0.00 0.08 0.00 92 1009.9
20260507020045 0 229 8.0 11.3 0.00 0.08 0.00 92 1009.9
20260507014543 0 234 6.4 14.5 0.00 0.08 0.00 92 1009.8
20260507013041 0 216 4.8 12.9 0.00 0.08 0.00 92 1009.8
20260507011540 0 232 3.2 6.4 0.00 0.08 0.00 92 1009.8
20260507010044 0 218 4.8 8.0 0.00 0.08 0.00 92 1009.8
20260507004536 0 232 3.2 9.7 0.00 0.08 0.00 92 1009.6
20260507003033 0 240 4.8 8.0 0.00 0.08 0.00 92 1009.6
20260507001534 -17 0.0 0.0 0.00 0.08 0.00 1009.4
20260507000032 -17 0.0 0.0 0.00 0.08 0.00 1009.4
20260506234521 -17 0.0 0.0 0.00 0.08 0.00 1009.4
20260506233018 -17 0.0 0.0 0.00 0.08 0.00 1009.3
20260506231516 -17 0.0 0.0 0.00 0.08 0.00 1009.3
20260506230012 -17 0.0 0.0 0.00 0.08 0.00 1009.3
20260506224505 -17 0.0 0.0 0.00 0.08 0.00 1009.2
20260506223102 -17 0.0 0.0 0.00 0.08 0.00 1009.2
20260506221558 -17 0.0 0.0 0.00 0.08 0.00 1009.1
20260506220052 -17 0.0 0.0 0.00 0.08 0.00 1009.1
20260506214547 -17 0.0 0.0 0.00 0.08 0.08 1008.9
20260506213042 -17 0.0 0.0 0.00 0.08 0.08 1008.9
20260506211538 -17 0.0 0.0 0.00 0.08 0.08 1008.9
20260506210037 -17 0.0 0.0 0.00 0.08 0.08 1008.9
20260506204545 -17 0.0 0.0 0.00 0.08 0.08 1008.9
20260506203029 -17 0.0 0.0 0.00 0.08 0.08 1008.8
20260506201524 -17 0.0 0.0 0.00 0.08 0.08 1008.8
20260506200016 -17 0.0 0.0 0.00 0.08 0.08 1008.8
20260506194513 -17 0.0 0.0 0.00 0.08 0.08 1008.8
20260506193014 1 284 0.0 4.8 0.00 0.08 0.08 77 1008.7
20260506191511 1 294 0.0 4.8 0.00 0.08 0.08 77 1008.6
20260506190008 1 294 3.2 6.4 0.00 0.08 0.08 77 1008.5
20260506184506 1 284 4.8 6.4 0.00 0.08 0.08 77 1008.5
20260506183006 1 247 3.2 6.4 0.00 0.08 0.08 77 1008.5
20260506181506 2 276 4.8 8.0 0.00 0.08 0.08 76 1008.3
20260506180008 2 272 6.4 11.3 0.00 0.08 0.08 74 1008.3
20260506174503 2 261 4.8 8.0 0.00 0.08 0.08 74 1008.3
20260506173003 2 260 6.4 14.5 0.00 0.08 0.08 72 1008.3
20260506171505 2 256 8.0 14.5 0.00 0.08 0.08 71 1008.3
20260506170001 2 241 9.7 16.1 0.00 0.08 0.08 72 1008.3
20260506164600 2 257 6.4 12.9 0.00 0.08 0.08 71 1008.2
20260506163059 2 229 8.0 17.7 0.00 0.08 0.08 68 1008.2
20260506161606 2 252 9.7 14.5 0.00 0.08 0.08 67 1008.2
20260506160058 2 138 3.2 9.7 0.00 0.08 0.08 76 1008.0
20260506154557 2 111 3.2 9.7 0.00 0.08 0.08 76 1008.0
20260506153055 2 128 1.6 9.7 0.00 0.08 0.08 76 1008.0
20260506151606 2 134 3.2 11.3 0.00 0.08 0.08 75 1007.9
20260506150054 2 141 3.2 16.1 0.00 0.08 0.08 73 1007.9
20260506144552 3 192 6.4 14.5 0.00 0.08 0.08 69 1007.7
20260506143055 3 37 4.8 14.5 0.00 0.08 0.08 63 1007.6